Regional Weather Roundup
Issued by NWS

Home | Current Version | Previous Version | Text Only | Print | Product List | Glossary On
Versions: 1 2 3 4 5 6 7 8 9 10 11 12 13 14 15 16 17 18 19 20 21 22 23 24 25 26 27
000
ASUS45 KBOU 071807
RWRCO

WEATHER ROUNDUP FOR COLORADO
NATIONAL WEATHER SERVICE DENVER/BOULDER CO
1100 AM MST WED DEC 07 2016

NOTE: "FAIR" INDICATES FEW OR NO CLOUDS BELOW 12000 FEET WITH NO
SIGNIFICANT WEATHER AND/OR OBSTRUCTIONS TO VISIBILITY.

COZ001>005-013-030-031-071900-
...NORTHWEST COLORADO...

CITY           SKY/WX    TMP DP  RH WIND       PRES   REMARKS
CRAIG          PTSUNNY   18   7  62 CALM      30.14R
HAYDEN         FAIR      12   3  67 W12       30.10R WCI  -2
MEEKER         CLOUDY    16  10  77 SW6       30.12R WCI   7
MOUNT WERNER   NOT AVBL
STEAMBOAT SPGS FAIR      14   5  67 S8        30.07R WCI   3
WALDEN           N/A      9   3  78 CALM      29.98S
$$

COZ006>008-011-071900-
...WEST CENTRAL VALLEYS...

CITY           SKY/WX    TMP DP  RH WIND       PRES   REMARKS
GRAND JUNCTION FAIR      28  21  75 SE7       30.16R WCI  21
MONTROSE       FAIR      27  14  58 CALM      30.16R
EAGLE          PTSUNNY   27  10  50 VRB3      30.09R
RIFLE          FAIR      25  11  55 W6        30.14R WCI  18
DELTA          NOT AVBL
NUCLA          FAIR      28   5  37 CALM      30.17R
$$

COZ017>023-064>068-071900-
...SOUTHWEST COLORADO...

CITY           SKY/WX    TMP DP  RH WIND       PRES   REMARKS
DURANGO        FAIR      31  -2  24 SW16      30.03R WCI  20
CORTEZ         FAIR      33   3  28 N12       30.10S WCI  24
PAGOSA SPRINGS FAIR      29   5  35 SW12      30.00S WCI  19
TELLURIDE      FAIR      17   0  47 W8        30.02S WCI   6
WOLF CREEK PAS CLOUDY     7   5  92 SW17G30   29.90S FOG     WCI -12
$$

COZ009-010-012-014-032>034-037-058>063-071900-
...CENTRAL COLORADO...

CITY           SKY/WX    TMP DP  RH WIND       PRES   REMARKS
ASPEN          PTSUNNY   18   5  57 NE5       30.00R WCI  11
BUENA VISTA    FAIR      21 -10  24 W10G30    29.97R WCI  10
COPPER MTN     NOT AVBL
BERTHOUD PASS  SNOW      -9 -20  59 N13G24    29.73R VSB 1/4 WCI -30
COTTONWOOD PAS FAIR      14  -8  37 W6G18     29.90R WCI   5
GUNNISON       FAIR      20   1  43 W13       30.02R WCI   7
KREMMLING      CLOUDY    19   9  63 CALM      30.04S
LEADVILLE      PTSUNNY    6 -10  47 W14G25    29.88R WCI -11
MONARCH PASS   CLOUDY     0  -6  78 W26G36    29.91R HAZE    WCI -25
SALIDA         FAIR      27  -5  25 W17G25    30.06S WCI  14
SUNLIGHT       LGT SNOW   1   0  92 SW6       29.94S VSB 1   WCI -10
WILKERSON PASS FAIR       5  -2  72 SW6       29.85S WCI  -6
$$

COZ069>075-071900-
...SAN LUIS VALLEY/SANGRE DE CRISTO MOUNTAINS...

CITY           SKY/WX    TMP DP  RH WIND       PRES   REMARKS
ALAMOSA        FAIR      26   4  38 N12G18    29.98S WCI  16
LA VETA PASS   CLOUDY    12   5  73 CALM      29.89S
SAGUACHE       FAIR      27  -8  22 NW20G30   30.00S WCI  13
$$

COZ035-036-038>040-071900-
...NORTHERN COLORADO FRONT RANGE...

CITY           SKY/WX    TMP DP  RH WIND       PRES   REMARKS
DENVER INTL AP PTSUNNY    8   1  73 N8        30.18S WCI  -4
DMNS CITY PARK   N/A     12   5  73 NE3G13    30.19F
AURORA         PTSUNNY    9   4  79 N6        30.17S WCI  -1
FRONT RANGE AP NOT AVBL
ERIE MUNI ARPT CLOUDY    10   4  74 NE5       30.22S WCI   2
BOULDER MUN AP CLOUDY    12   5  73 CALM      30.20S
CENTENNIAL     FLURRIES   8   3  80 N7        30.15S WCI  -3
BROOMFIELD     CLOUDY     9   5  85 NE5       30.18R FOG     WCI   0
FORT COLLINS   CLOUDY    10   3  72 NE3       30.23R
LONGMONT       FLURRIES  15   6  66 SE6       30.24S WCI   7
$$

COZ041-046-047-076>085-087-088-071900-
...PIKES PEAK/PALMER DIVIDE AND SOUTHERN FOOTHILLS...

CITY           SKY/WX    TMP DP  RH WIND       PRES   REMARKS
COLO. SPRINGS  PTSUNNY   19   6  57 NE3       30.09R
A. F. ACADEMY  PTSUNNY   14   4  63 N8        30.05S WCI   3
SCHRIEVER AFB  NOT AVBL
ELLICOTT       LGT RAIN N/A N/A N/A MISG      30.07
FALCON         FAIR      17   5  61 N9        30.06R WCI   5
FORT CARSON    CLOUDY    20   7  57 SW5       30.09S WCI  14
LIMON          FLURRIES  13   9  84 NE13      30.15S WCI  -2
MONUMENT HILL  LGT SNOW   9   3  78 NW7       30.07R WCI  -3
TRINIDAD       LGT SNOW  19   9  65 N9        30.12S WCI   8
$$

COZ042>045-048>051-090-091-071900-
...NORTHEAST COLORADO...

CITY           SKY/WX    TMP DP  RH WIND       PRES   REMARKS
GREELEY ARPT   CLOUDY    10   1  67 N9        30.26S WCI  -3
AKRON          LGT SNOW  11   5  77 N12       30.22S WCI  -3
BURLINGTON     LGT SNOW  15   7  70 N16       30.23R WCI  -1
WRAY           NOT AVBL
STERLING       CLOUDY    12   5  73 N13       30.27S WCI  -3
HOLYOKE        CLOUDY    19  10  68 N13       30.29S HAZE    WCI   7
FORT MORGAN    CLOUDY    13   4  68 N14       30.26S WCI  -2
$$

COZ086-089-092>099-071900-
...SOUTHEAST COLORADO...

CITY           SKY/WX    TMP DP  RH WIND       PRES   REMARKS
PUEBLO         CLOUDY    23  10  57 E5        30.16S WCI  17
LA JUNTA       CLOUDY    21  13  71 NE14      30.20R WCI   8
LAMAR          LGT SNOW  19  12  74 NE15      30.21R WCI   5
SPRINGFIELD      N/A     22  10  60 N15       30.13R WCI   9
$$




USA.gov is the U.S. government's official web portal to all federal, state and local government web resources and services.